Regional Weather Roundup
Issued by NWS

Home | Current Version | Previous Version | Text Only | Print | Product List | Glossary Off
Versions: 1 2 3 4 5 6 7 8 9 10 11 12 13 14 15 16 17 18 19 20 21 22 23 24 25 26 27 28 29 30 31 32 33 34 35 36 37 38 39 40 41 42 43 44 45 46 47 48 49 50

000
ASUS43 KDTX 141010
RWRMI
MICHIGAN HOURLY REGIONAL WEATHER ROUNDUP
NATIONAL WEATHER SERVICE DETROIT/PONTIAC MI
500 AM EST SUN FEB 14 2016

NOTE: "FAIR" INDICATES FEW OR NO CLOUDS BELOW 12,000 FEET WITH NO
SIGNIFICANT WEATHER AND/OR OBSTRUCTION TO VISIBILITY.

MIZ047>049-052>055-059>063-066>070-074>076-081>083-141100-
SOUTHEAST LOWER MICHIGAN

CITY           SKY/WX    TMP DP  RH WIND       PRES   REMARKS
ADRIAN         PTCLDY     1  -3  83 CALM      30.47S
ALMA           CLOUDY     7   3  84 CALM      30.45F
ANN ARBOR      CLOUDY    -7 -12  79 CALM      30.45F
BAD AXE        CLOUDY    -3  -6  84 W8        30.45S WCI -17
CARO           CLOUDY   -11 -15  84 CALM      30.45F
DETROIT CITY   CLEAR      4  -2  76 CALM      30.48S
DETROIT        CLEAR      3  -2  79 CALM      30.49S
FLINT          CLOUDY     2  -5  72 CALM      30.45F
GROSSE ILE     CLEAR      3   1  92 CALM      30.47F
HILLSDALE      CLOUDY     2  -2  83 CALM      30.41F
HOWELL         CLOUDY    -6 -10  83 CALM      30.43F

CITY           SKY/WX    TMP DP  RH WIND       PRES   REMARKS
JACKSON        CLOUDY    -2  -7  79 CALM      30.43F
LAMBERTVILLE   PTCLDY     2  -1  86 CALM      30.48S
LANSING        CLOUDY     2  -3  80 CALM      30.45F
LAPEER         FAIR      -9 -13  83 CALM      30.45S
MASON          CLOUDY    -4  -8  84 CALM      30.44F
MONROE         CLEAR      2  -1  85 CALM      30.47F
MT. CLEMENS    CLOUDY     4   0  82 W5        30.46S WCI  -5
PONTIAC        CLOUDY    -2  -7  79 CALM      30.43F
PORT HOPE        N/A      8   0  69 W7        30.42F WCI  -3
PORT HURON     CLOUDY    -8 -11  84 CALM      30.47R
TRI CITIES     CLOUDY    10   3  73 SW5       30.46F WCI   2
MIDLAND        CLOUDY     9   2  76 CALM      30.45F
TROY           CLEAR      7   2  82 W3        30.48F
SAGINAW HB     CLOUDY     7   3  85 CALM      30.46F
$$
MIZ043>046-050>051-056>058-064>065-071>073-077>080-141100-
SOUTHWEST LOWER MICHIGAN

CITY           SKY/WX    TMP DP  RH WIND       PRES   REMARKS
BATTLE CREEK   PTCLDY     1  -4  79 CALM      30.43F
BENTON HARBOR  CLOUDY    11   3  70 E6        30.43F WCI   1
BIG RAPIDS     CLOUDY     3   1  88 CALM      30.40F
COLDWATER      PTCLDY     2  -2  84 SE3       30.43F
FREMONT        CLOUDY    11  -1  58 E7        30.42F WCI   0
HOLLAND        CLOUDY    11   1  64 SE9       30.43F WCI  -2
GRAND RAPIDS   CLEAR      2  -3  80 CALM      30.44F
IONIA          FAIR       4  -2  77 S5        30.43F WCI  -6
KALAMAZOO      CLOUDY     7  -2  66 CALM      30.43F
LUDINGTON      CLOUDY    13   4  67 SE5       30.41F WCI   5
MARSHALL       PTCLDY     1  -3  87 CALM      30.43F
MOUNT PLEASANT CLOUDY    11   2  68 CALM      30.43F
MUSKEGON       CLOUDY    12   1  61 SE9       30.43F WCI   0
SOUTH HAVEN    CLOUDY    12   6  76 SE7       30.43F WCI   1
$$
MIZ016>042-141100-
NORTHERN LOWER MICHIGAN

CITY           SKY/WX    TMP DP  RH WIND       PRES   REMARKS
ALPENA         CLOUDY     0  -4  83 CALM      30.44R
BEAVER ISLAND  CLOUDY     9   4  81 CALM      30.38F
BELLAIRE       LGT SNOW  10   8  88 CALM      30.42S
CADILLAC       CLOUDY     2  -2  83 W3        30.35F
CHARLEVOIX     CLOUDY    10   7  85 SE6       30.42F WCI   1
FRANKFORT      CLOUDY    13   5  68 SE5       30.39F WCI   6
GAYLORD        FLURRIES   4  -1  80 S3        30.34F
GRAYLING       CLOUDY     2  -2  81 CALM      30.38S
HARBOR SPRINGS LGT SNOW  -1  -4  85 NE5       30.40S WCI -11
HOUGHTON LAKE  CLOUDY     7   2  80 S5        30.38F WCI  -2
MANISTEE       CLOUDY    10   1  67 SE3       30.40F
OSCODA         CLEAR     -8 -12  79 W5        30.44F WCI -19
PELLSTON       MOCLDY    -9 -14  78 CALM      30.41S
ROGERS CITY    CLOUDY     3  -1  81 S5        30.44R WCI  -6
TRAVERSE CITY  CLOUDY    11   3  70 VRB3      30.40F
$$
MIZ007>008-015-141100-
EASTERN UPPER MICHIGAN

CITY           SKY/WX    TMP DP  RH WIND       PRES   REMARKS
KINROSS        CLOUDY    -2  -8  78 E10       30.40F WCI -19
MACKINAC ISLAN LGT SNOW   6   3  88 E5        30.40S WCI  -3
NEWBERRY       CLOUDY    -7 -10  90 SE5       30.37S WCI -19
S. S. MARIE    PTCLDY    -8 -14  74 E6        30.42F WCI -21
MUNISING         N/A     -6 -11  79 S9        30.38S WCI -23
$$
MIZ004>006-011>014-085-141100-
CENTRAL UPPER MICHIGAN

CITY           SKY/WX    TMP DP  RH WIND       PRES   REMARKS
MANISTIQUE     CLOUDY   -12 -15  84 W3        30.38S
ESCANABA       CLOUDY   -15 N/A N/A CALM      30.39R
MENOMINEE      CLOUDY    -6  -9  84 CALM      30.38S
SAWYER-GWINN   CLOUDY   -21 -26  76 CALM      30.32R
$$
MIZ001>003-009>011-084-141100-
WESTERN UPPER MICHIGAN

CITY           SKY/WX    TMP DP  RH WIND       PRES   REMARKS
IRON MOUNTAIN  CLOUDY   -18 -24  74 CALM      30.31F
HOUGHTON       CLOUDY    -3  -8  79 S6        30.29F WCI -15
COPPER HARBOR    N/A      5  -1  76 SW7       30.33F WCI  -7
IRONWOOD       CLOUDY     0  -8  71 S8        30.22F WCI -15
$$

ABBREVIATIONS USED IN REMARKS
   TC - TEMPERATURE IN CELSIUS
  WCI - WIND CHILL INDEX
   HX - HEAT INDEX
  VSB - VISIBILITY




USA.gov is the U.S. government's official web portal to all federal, state and local government web resources and services.